Location: Newark
(30.3239°N, 81.6375°W)
Time: 18:50:24
(UTC+00:00)

ISS - Visible Passes

Search period start: 19 January 2020 00:00
Search period end: 29 January 2020 00:00
Orbit: 415 x 421 km, 51.6° (Epoch: 20 January)

Date Brightness Start Highest point End Pass type
(mag) Time Alt. Az. Time Alt. Az. Time Alt. Az.
19 Jan -0.6 01:08:59 10° W 01:09:50 14° WNW 01:09:50 14° WNW visible
20 Jan -2.3 00:20:20 10° WSW 00:23:24 32° NW 00:24:17 27° N visible
20 Jan -3.4 23:32:03 10° SW 23:35:23 64° NW 23:38:38 11° NE visible
22 Jan -1.0 00:23:01 10° WNW 00:24:27 12° NNW 00:25:52 10° N visible
22 Jan -1.5 23:33:45 10° W 23:36:17 20° NW 23:38:50 10° NNE visible
